Flag for Austria Past Weather in Waidhofen an der Thaya, Lower Austria, Austria — Yesterday and Last 2 Weeks

Now
76 °F

Mild.


Feels Like: 77 °F
Forecast: 66 / 85 °F
Wind: 3 mph from Northeast

Location: Retz

Current Time: Jun 25, 2016 at 1:58:16 AM

Latest Report: Jun 25, 2016 at 1:00 AM


Visibility: N/A

Pressure: 29.94 "Hg (28.25 "Hg at 506m altitude)

Humidity: 76%

Dew Point: 67 °F

Location of Waidhofen an der ThayaLocation

Past Weather in Waidhofen an der Thaya — Graph

°F

Waidhofen an der Thaya Temperature Yesterday

Maximum temperature yesterday: 88 °F (at 3:00 PM)
Minimum temperature yesterday: 69 °F (at 6:00 AM)
Average temperature yesterday: 79 °F

High & Low Weather Summary for the Past Weeks

 TemperatureHumidityPressure
High88 °F (Jun 24, 3:00 PM)98% (Jun 20, 11:00 PM)30.27 "Hg (Jun 20, 11:00 PM)
Low54 °F (Jun 14, 5:00 AM)36% (Jun 18, 3:00 PM)29.44 "Hg (Jun 17, 4:00 AM)
Average66 °F69%29.89 "Hg
* Reported Jun 10 12:00 AM — Jun 25 12:00 AM, Waidhofen an der Thaya, Weather by CustomWeather, © 2016

Note: Actual official high and low records may vary slightly from our data, if they occured in-between our weather recording intervals... More about our weather records

Advertising

Waidhofen an der Thaya Weather History for the Previous 24 Hours

Scroll right to see more
 ConditionsComfort  
Time TempWeatherWind HumidityBarometerVisibility
12:00 AM
Sat, Jun 25
77 °FMild.3 mph74%29.94 "HgN/A
11:00 PM
Fri, Jun 24
78 °FWarm.3 mph70%29.94 "HgN/A
10:00 PM80 °FWarm.2 mph65%29.95 "HgN/A
9:00 PM82 °FWarm.2 mph63%29.94 "HgN/A
8:00 PM84 °FWarm.2 mph59%29.93 "HgN/A
7:00 PM86 °FWarm.3 mph56%29.93 "HgN/A
6:00 PM87 °FWarm.5 mph51%29.94 "HgN/A
3:00 PM88 °FHot.5 mph52%29.99 "HgN/A
2:00 PM87 °FPassing clouds.5 mph52%30.00 "Hg12 mi
1:00 PM85 °FWarm.5 mph56%30.01 "HgN/A
12:00 PM83 °FWarm.5 mph58%30.03 "HgN/A
11:00 AM82 °FWarm.3 mph62%30.04 "HgN/A
10:00 AM79 °FWarm.3 mph65%30.05 "HgN/A
9:00 AM75 °FMild.3 mph70%30.06 "HgN/A
8:00 AM73 °FSunny.3 mph74%30.06 "Hg6 mi
7:00 AM71 °FSunny.5 mph76%30.07 "Hg5 mi
6:00 AM69 °FMild.5 mph78%30.08 "HgN/A
5:00 AM70 °FMild.5 mph75%30.09 "HgN/A
4:00 AM71 °FMild.5 mph74%30.09 "HgN/A
3:00 AM72 °FMild.5 mph71%30.09 "HgN/A
2:00 AM73 °FMild.5 mph65%30.10 "HgN/A
1:00 AM75 °FMild.3 mph58%30.11 "HgN/A
Weather by CustomWeather, © 2016

See weather overviewHow to use our weather pages